Weather History for KHQU - February, 2013

Change the Weather History Date:

Sunday, February 10, 2013

  Actual Average (KAGS) Record (KAGS)
Temperature  
Mean Temperature 48 °F 48 °F  
Max Temperature 65 °F 61 °F 79 °F (1959)
Min Temperature 31 °F 35 °F 14 °F (1971)
Degree Days  
Heating Degree Days 17 17  
Month to date heating degree days 176  
Since 1 July heating degree days 1761  
Cooling Degree Days 0 0  
Month to date cooling degree days 0  
Year to date cooling degree days 1  
Moisture  
Dew Point 44 °F    
Average Humidity 81    
Maximum Humidity 100    
Minimum Humidity 54    
Precipitation  
Precipitation 0.00 in 0.14 in 2.35 in (1981)
Month to date precipitation 1.32  
Year to date precipitation 5.23  
Sea Level Pressure  
Sea Level Pressure 30.30 in    
Wind  
Wind Speed 5 mph (ESE)    
Max Wind Speed 15 mph    
Max Gust Speed 24 mph    
Visibility 9 miles    
Events      
T = Trace of Precipitation, MM = Missing Value Source: NWS Daily Summary

Daily Weather History Graph

Daily Weather History Graph

Search for Another Location

Airport or City:

Trip Planner

Search our weather history database for the weather conditions in past years. The results will help you decide how hot, cold, wet, or windy it might be!

Date:

Astronomy

Feb. 10, 2013 Rise Set
Actual Time 7:18 AM EST 6:10 PM EST
Civil Twilight 6:53 AM EST 6:35 PM EST
Nautical Twilight 6:23 AM EST 7:05 PM EST
Astronomical Twilight 5:54 AM EST 7:34 PM EST
Moon 7:11 AM EST (2/10) 6:54 PM EST (2/10)
Length of Visible Light 11h 42m
Length of Day
10h 51m
New Moon, 0% of the Moon is Illuminated
Feb 10
New Moon
Feb 17
First Quarter
Feb 25
Full
Mar 4
Last Quarter
Mar 11
New

Hourly Weather History & Observations

Time (EST) Temp. Windchill Dew Point Humidity Pressure Visibility Wind Dir Wind Speed Gust Speed Precip Events Conditions
12:15 AM 32.4 °F 27.9 °F 32.4 °F 100% 30.34 in 10.0 mi East 4.6 mph - N/A   Clear
12:35 AM 32.0 °F 27.5 °F 32.0 °F 100% 30.34 in 10.0 mi East 4.6 mph - N/A   Clear
12:55 AM 31.5 °F 28.1 °F 31.5 °F 100% 30.34 in 10.0 mi East 3.5 mph - N/A   Clear
1:15 AM 32.0 °F - 32.0 °F 100% 30.34 in 10.0 mi Calm Calm - N/A   Clear
1:35 AM 32.2 °F - 32.2 °F 100% 30.35 in 10.0 mi Calm Calm - N/A   Clear
1:55 AM 33.4 °F - 32.9 °F 98% 30.35 in 10.0 mi Calm Calm - N/A   Clear
2:15 AM 35.8 °F - 34.2 °F 94% 30.34 in 10.0 mi Calm Calm - N/A   Scattered Clouds
2:35 AM 34.7 °F 29.6 °F 34.7 °F 100% 30.35 in 10.0 mi East 5.8 mph - N/A   Scattered Clouds
2:55 AM 36.3 °F - 35.6 °F 97% 30.35 in 10.0 mi Calm Calm - N/A   Clear
3:15 AM 34.9 °F - 34.9 °F 100% 30.35 in 10.0 mi Calm Calm - N/A   Clear
3:35 AM 34.9 °F - 34.9 °F 100% 30.35 in 10.0 mi Calm Calm - N/A   Clear
3:55 AM 35.4 °F 31.5 °F 35.4 °F 100% 30.34 in 10.0 mi NNE 4.6 mph - N/A   Clear
4:15 AM 36.7 °F - 36.5 °F 99% 30.35 in 10.0 mi Calm Calm - N/A   Clear
4:35 AM 34.7 °F - 34.7 °F 100% 30.36 in 10.0 mi Calm Calm - N/A   Clear
4:55 AM 35.6 °F - 35.6 °F 100% 30.37 in 10.0 mi Calm Calm - N/A   Clear
5:15 AM 34.7 °F - 34.7 °F 100% 30.38 in 10.0 mi Calm Calm - N/A   Clear
5:35 AM 34.9 °F - 34.9 °F 100% 30.38 in 10.0 mi Calm Calm - N/A   Clear
5:55 AM 34.7 °F - 34.7 °F 100% 30.38 in 10.0 mi Calm Calm - N/A   Clear
6:15 AM 35.6 °F 32.8 °F 35.6 °F 100% 30.38 in 10.0 mi East 3.5 mph - N/A   Clear
6:35 AM 36.9 °F 33.1 °F 36.0 °F 97% 30.38 in 10.0 mi East 4.6 mph - N/A   Clear
6:55 AM 36.1 °F 33.5 °F 35.6 °F 98% 30.39 in 10.0 mi East 3.5 mph - N/A   Clear
7:15 AM 36.1 °F 32.3 °F 36.0 °F 99% 30.39 in 10.0 mi East 4.6 mph - N/A   Clear
7:35 AM 36.5 °F - 36.0 °F 98% 30.39 in 10.0 mi Calm Calm - N/A   Clear
7:55 AM 36.0 °F - 36.0 °F 100% 30.39 in 10.0 mi Calm Calm - N/A   Clear
8:15 AM 38.5 °F - 38.5 °F 100% 30.40 in 10.0 mi Calm Calm - N/A   Clear
8:35 AM 42.8 °F 41.1 °F 40.3 °F 91% 30.40 in 10.0 mi East 3.5 mph - N/A   Clear
8:55 AM 44.6 °F 40.7 °F 41.4 °F 88% 30.39 in 10.0 mi East 6.9 mph - N/A   Clear
9:15 AM 46.2 °F 42.7 °F 40.3 °F 80% 30.37 in 10.0 mi East 6.9 mph - N/A   Clear
9:35 AM 47.1 °F - 39.0 °F 73% 30.40 in 10.0 mi East 5.8 mph - N/A   Clear
9:55 AM 49.1 °F - 39.0 °F 68% 30.41 in 10.0 mi East 4.6 mph - N/A   Clear
10:15 AM 51.1 °F - 39.2 °F 64% 30.41 in 10.0 mi East 6.9 mph - N/A   Clear
10:35 AM 52.0 °F - 38.8 °F 61% 30.42 in 10.0 mi East 6.9 mph - N/A   Clear
10:55 AM 54.7 °F - 39.2 °F 56% 30.41 in 10.0 mi East 8.1 mph - N/A   Scattered Clouds
11:15 AM 56.5 °F - 39.7 °F 54% 30.40 in 10.0 mi East 8.1 mph - N/A   Scattered Clouds
11:35 AM 57.4 °F - 42.1 °F 57% 30.40 in 10.0 mi SE 8.1 mph - N/A   Clear
11:55 AM 59.0 °F - 43.5 °F 56% 30.39 in 10.0 mi ESE 9.2 mph - N/A   Scattered Clouds
12:15 PM 60.3 °F - 45.1 °F 57% 30.36 in 10.0 mi ESE 11.5 mph 17.3 mph N/A   Scattered Clouds
12:35 PM 61.5 °F - 46.4 °F 58% 30.35 in 10.0 mi SE 9.2 mph 17.3 mph N/A   Clear
12:55 PM 62.1 °F - 47.5 °F 59% 30.32 in 10.0 mi SE 11.5 mph 17.3 mph N/A   Clear
1:15 PM 62.4 °F - 47.8 °F 59% 30.31 in 10.0 mi SSE 10.4 mph 17.3 mph N/A   Clear
1:35 PM 63.5 °F - 48.6 °F 58% 30.28 in 10.0 mi SE 11.5 mph 18.4 mph N/A   Clear
1:55 PM 64.2 °F - 48.7 °F 57% 30.27 in 10.0 mi SSE 12.7 mph 19.6 mph N/A   Clear
2:15 PM 64.2 °F - 49.1 °F 58% 30.28 in 10.0 mi SSE 8.1 mph 16.1 mph N/A   Clear
2:35 PM 65.3 °F - 49.5 °F 57% 30.25 in 10.0 mi SE 15.0 mph 18.4 mph N/A   Clear
2:55 PM 64.6 °F - 48.7 °F 56% 30.25 in 10.0 mi SE 15.0 mph 24.2 mph N/A   Clear
3:15 PM 64.6 °F - 49.5 °F 58% 30.24 in 10.0 mi SSE 12.7 mph 20.7 mph N/A   Scattered Clouds
3:35 PM 65.1 °F - 50.0 °F 58% 30.24 in 10.0 mi SE 12.7 mph 19.6 mph N/A   Scattered Clouds
3:55 PM 64.2 °F - 50.2 °F 60% 30.24 in 10.0 mi SSE 10.4 mph 20.7 mph N/A   Mostly Cloudy
4:15 PM 64.2 °F - 50.9 °F 62% 30.22 in 10.0 mi SE 6.9 mph 18.4 mph N/A   Overcast
4:35 PM 64.0 °F - 50.9 °F 62% 30.21 in 10.0 mi ESE 5.8 mph - N/A   Overcast
4:55 PM 64.4 °F - 51.1 °F 62% 30.20 in 10.0 mi SE 8.1 mph 16.1 mph N/A   Overcast
5:15 PM 63.9 °F - 51.3 °F 64% 30.19 in 10.0 mi SE 8.1 mph - N/A   Overcast
5:35 PM 64.2 °F - 51.8 °F 64% 30.20 in 10.0 mi SSE 8.1 mph - N/A   Overcast
5:55 PM 64.2 °F - 51.3 °F 63% 30.16 in 10.0 mi SE 9.2 mph 18.4 mph N/A   Mostly Cloudy
6:15 PM 63.7 °F - 51.1 °F 64% 30.15 in 10.0 mi SE 10.4 mph - N/A   Scattered Clouds
6:35 PM 63.5 °F - 51.1 °F 64% 30.15 in 10.0 mi ESE 8.1 mph - N/A   Clear
6:55 PM 62.8 °F - 51.4 °F 66% 30.16 in 10.0 mi SE 6.9 mph - N/A   Clear
7:15 PM 62.6 °F - 51.8 °F 68% 30.17 in 10.0 mi SE 6.9 mph - N/A   Clear
7:35 PM 62.6 °F - 51.8 °F 68% 30.17 in 10.0 mi SE 8.1 mph - N/A   Mostly Cloudy
7:55 PM 62.6 °F - 52.0 °F 68% 30.18 in 10.0 mi SSE 6.9 mph - N/A   Overcast
8:15 PM 62.4 °F - 52.7 °F 70% 30.19 in 10.0 mi SE 11.5 mph 18.4 mph N/A   Overcast
8:35 PM 61.9 °F - 53.6 °F 74% 30.20 in 10.0 mi SE 4.6 mph - N/A   Overcast
8:55 PM 61.5 °F - 54.0 °F 76% 30.21 in 10.0 mi ESE 3.5 mph - N/A   Overcast
9:15 PM 56.8 °F - 56.3 °F 98% 30.22 in 7.0 mi NNE 5.8 mph - N/A   Overcast
9:35 PM 55.9 °F - 55.9 °F 100% 30.22 in 2.5 mi NE 6.9 mph - N/A   Overcast
9:55 PM 55.6 °F - 55.6 °F 100% 30.24 in 5.0 mi NNE 6.9 mph - N/A   Overcast
10:15 PM 55.4 °F - 55.4 °F 100% 30.25 in 4.0 mi NNE 4.6 mph - N/A   Overcast
10:35 PM 55.2 °F - 55.2 °F 100% 30.25 in 5.0 mi North 3.5 mph - N/A   Overcast
10:55 PM 55.0 °F - 55.0 °F 100% 30.26 in 4.0 mi Calm Calm - N/A   Overcast
11:15 PM 54.9 °F - 54.9 °F 100% 30.25 in 2.5 mi North 4.6 mph - N/A   Overcast
11:35 PM 54.7 °F - 54.7 °F 100% 30.25 in 2.5 mi Calm Calm - N/A   Overcast
11:55 PM 54.5 °F - 54.5 °F 100% 30.24 in 3.0 mi Calm Calm - N/A   Overcast